Flag for Switzerland Weather past 2 weeks in Delémont, Jura, Switzerland

Now
48 °F

Cool.


Feels Like: 41 °F
Forecast: 49 / 52 °F
Wind: 20 mph from West

Location: Grenchen

Current Time: Mar 29, 2015 at 6:30:12 PM

Latest Report: Mar 29, 2015 at 5:00 PM


Visibility: N/A

Pressure: 29.97 "Hg

Humidity: 94%

Dew point: 46 °F

Location of DelémontLocation

Historic Weather in Delémont — Graph

°F

Delémont temperature yesterday

Maximum temperature yesterday: 52 °F (at 1:00 PM)
Minimum temperature yesterday: 29 °F (at 6:00 AM)
Average temperature yesterday: 42 °F

Past Weeks' High & Low Weather Summary

 TemperatureHumidityPressure
High64 °F (Mar 18, 4:00 PM)100% (Mar 24, 3:00 AM)30.36 "Hg (Mar 24, 3:00 AM)
Low28 °F (Mar 15, 3:00 AM)35% (Mar 17, 4:00 PM)29.62 "Hg (Mar 25, 1:00 PM)
Average45 °F76%30.08 "Hg
* Reported Mar 14 4:00 PM — Mar 29 5:00 PM, Delémont, Weather by CustomWeather, © 2015

Note: Actual official high and low records may vary slightly from our data, if they occured in-between our weather recording intervals... More about our weather records

Advertising

Delémont weather history for previous 24 hours

 ConditionsComfort  
Time TempWeatherWind HumidityBarometerVisibility
5:00 PM
Sun, Mar 29
48 °FCool.20 mph94%29.97 "HgN/A
4:00 PM49 °FCool.20 mph85%29.98 "HgN/A
3:00 PM49 °FCool.20 mph82%29.98 "HgN/A
2:00 PM49 °FCool.18 mph86%29.99 "HgN/A
1:00 PM50 °FCool.25 mph81%29.98 "HgN/A
12:00 PM51 °FCool.23 mph77%30.00 "HgN/A
11:00 AM52 °FCool.26 mph75%30.00 "HgN/A
10:00 AM50 °FCool.21 mph81%30.02 "HgN/A
9:00 AM48 °FCool.22 mph82%30.04 "HgN/A
8:00 AM48 °FCool.17 mph84%30.05 "HgN/A
7:00 AM47 °FCool.13 mph88%30.07 "HgN/A
6:00 AM47 °FCool.15 mph87%30.09 "HgN/A
5:00 AM47 °FCool.15 mph88%30.10 "HgN/A
4:00 AM46 °FCool.12 mph92%30.14 "HgN/A
3:00 AM46 °FCool.16 mph88%30.13 "HgN/A
1:00 AM46 °FCool.8 mph91%30.14 "HgN/A
12:00 AM46 °FCool.10 mph89%30.16 "HgN/A
11:00 PM
Sat, Mar 28
46 °FCool.12 mph92%30.17 "HgN/A
9:00 PM45 °FCool.13 mph93%30.20 "HgN/A
8:00 PM45 °FCool.12 mph92%30.20 "HgN/A
7:00 PM46 °FCool.10 mph85%30.19 "HgN/A
6:00 PM49 °FCool.12 mph66%30.16 "HgN/A
Weather by CustomWeather, © 2015

See weather overviewHow to use our weather pages